Location: Foy la-Longue
(44.6102°N, 0.1449°W)
Time: 23:17:56
(UTC+00:00)

Daily predictions for brighter satellites

Satellite Brightness Start Highest point End
(mag) Time Altitude Azimuth Time Altitude Azimuth Time Altitude Azimuth
Cosmos 1766 Rocket 4.2 16:59:15 10° NNW 17:03:37 63° W 17:07:59 10° S
Cosmos 1408 2.6 17:02:55 10° N 17:06:33 89° W 17:10:08 10° S
COSMO-SKYMED 1 4.1 17:05:55 10° NE 17:08:51 18° E 17:11:47 10° SE
SL-08 R/B 4.5 17:04:28 10° N 17:10:37 82° E 17:16:48 10° S
SeaSat 1 2.7 17:06:00 10° SE 17:10:44 49° NE 17:15:29 10° NNW
Cosmos 1802 Rocket 4.4 17:05:08 10° NNW 17:11:26 71° W 17:17:37 10° S
Cosmos 1656 Rocket 4.4 17:06:42 10° SW 17:12:05 52° WNW 17:17:26 10° NNE
BREEZE-M DEB (TANK) 4.4 17:07:34 10° WNW 17:12:06 70° SSW 17:26:26 10° SE
Cosmos 1437 2.6 17:09:44 10° N 17:12:47 60° ENE 17:15:48 10° SSE
Geosat 4.2 17:08:05 10° NE 17:13:02 54° ESE 17:17:56 10° S
Timation 2 Rocket 4.3 17:09:29 10° NNW 17:15:34 74° WSW 17:21:49 10° SSE
Cosmos 1867 3.8 17:10:55 10° SSW 17:16:14 57° ESE 17:21:36 10° NE
Cosmos 2061 Rocket 4.3 17:10:37 10° NNW 17:16:47 73° W 17:22:59 10° S
Cosmos 1825 2.2 17:14:01 10° N 17:17:49 89° NE 17:21:36 10° S
BREEZE-M DEB (TANK) 4.2 17:14:53 10° SW 17:18:32 57° SE 17:30:23 10° ENE
Sich 1 4.3 17:19:08 10° NNE 17:22:23 20° ENE 17:25:39 10° ESE
Cosmos 2219 3.5 17:17:13 10° NNW 17:22:36 44° ENE 17:27:56 10° SE
NOAA 12 4.3 17:18:05 10° SE 17:23:13 51° ENE 17:28:24 10° N
GEOS 3 Rocket 3.8 17:19:09 10° NE 17:24:23 81° NW 17:29:39 10° SW
Cosmos 2369 Rocket 4.3 17:24:42 10° W 17:28:54 21° NW 17:33:07 10° N
Cosmos 2084 3.9 17:27:13 10° NNW 17:31:19 40° NE 17:35:18 10° ESE
CZ-3B R/B 3.9 17:29:48 10° WNW 17:31:41 24° NNW 17:34:13 11° NE
ASTEX 1 4.2 17:29:44 10° N 17:34:38 56° W 17:39:30 10° SSW
Okean-O 2.6 17:31:54 10° SSE 17:36:16 67° ENE 17:40:41 10° N
Cosmos 2344 3.9 17:30:18 10° SW 17:37:47 70° NW 17:46:03 10° NE
Meteor 2-2 Rocket 4.4 17:32:19 10° S 17:38:02 54° E 17:43:41 10° NNE
Cosmos 773 Rocket 4.1 17:33:46 10° S 17:38:44 52° ESE 17:43:47 10° NNE
YAOGAN 1 3.5 17:35:17 10° ESE 17:38:53 26° ENE 17:42:30 10° N
NOSS 7 (D) 3.9 17:38:27 10° SW 17:41:29 87° NW 17:43:34 17° NE
CSL-04 Rocket 4.2 17:39:03 10° SE 17:43:52 35° ENE 17:48:41 10° N
Cosmos 1455 4.4 17:40:47 10° SW 17:43:59 26° WNW 17:47:14 10° NNW
Cosmos 2227 Rocket 2.6 17:41:07 10° NNW 17:46:31 42° ENE 17:51:52 10° SE
Cosmos 2297 Rocket 2.5 17:41:46 10° NNW 17:47:12 46° ENE 17:52:37 10° SE
Cosmos 1842 Rocket 4.4 17:44:40 10° SSW 17:49:03 54° WNW 17:53:28 10° N
Cosmos 1538 Rocket 4.2 17:44:09 10° S 17:49:11 49° ESE 17:54:18 10° NNE
Cosmos 2221 2.7 17:45:04 10° SSW 17:49:21 74° W 17:53:41 10° N
Cosmos 1633 3.5 17:48:00 10° NNE 17:51:06 26° ENE 17:52:46 18° ESE
TELKOM 3 3.6 17:49:43 10° NW 17:51:40 31° NNE 17:51:43 31° NNE
NOSS 8 (A) 4.1 17:48:30 10° SSW 17:51:46 64° SE 17:53:19 25° NE
H-2A R/B 3.8 17:52:15 10° S 17:56:01 48° W 17:59:46 10° NNW
Cosmos 1862 4.2 17:53:49 10° NNE 17:57:13 27° ENE 17:57:45 26° E
SKYMED 2 3.6 17:53:00 10° NNE 17:57:17 54° E 18:01:32 10° S
Cosmos 2233 Rocket 4.3 17:52:01 10° NNW 17:58:20 73° W 18:04:35 10° S
Meteor 1-27 4.4 17:52:50 10° SSW 17:58:27 78° W 18:04:13 10° N
PSLV R/B 3.9 17:57:04 10° SW 17:59:18 27° S 17:59:47 25° SSE
YAOGAN 6 2.4 17:59:31 10° SSE 18:02:58 59° ENE 18:06:26 10° N
CZ-4 R/B 4.3 18:03:12 10° SSE 18:07:18 69° ENE 18:11:26 10° N
Cosmos 1356 Rocket 3.3 18:04:09 10° S 18:08:13 62° E 18:12:23 10° NNE
Cosmos 1238 Rocket 4.0 18:04:18 10° NNW 18:08:53 50° W 18:12:38 10° SSW
Lacrosse 4 Rocket 2.7 18:07:41 10° SSE 18:10:04 22° SE 18:10:04 22° SE
Cosmos 1805 Rocket 3.4 18:06:40 10° N 18:11:02 88° E 18:15:24 10° S
Genesis I 3.5 18:07:54 10° SW 18:11:54 69° NW 18:14:20 23° NNE
Cosmos 2082 4.0 18:06:42 10° NNW 18:12:03 42° ENE 18:14:50 25° ESE
Cosmos 2263 Rocket 4.1 18:12:14 10° NNE 18:13:29 12° NNE 18:13:29 12° NNE
BREEZE-M DEB (TANK) 3.0 18:11:20 10° SW 18:16:46 38° SSE 18:17:34 33° SE
Cosmos 1464 Rocket 3.9 18:11:01 10° N 18:17:10 65° E 18:23:14 10° SSE
Cosmos 1891 Rocket 4.4 18:11:42 10° N 18:18:05 67° E 18:24:18 10° SSE
Envisat 3.5 18:17:05 10° S 18:22:05 61° W 18:27:08 10° NNW
USA 215 3.5 18:21:35 29° E 18:24:48 54° NNE 18:31:09 10° NW
Cosmos 1072 Rocket 4.3 18:18:45 10° N 18:24:54 81° E 18:31:04 10° S
Cosmos 1697 Rocket 3.1 18:20:45 10° S 18:25:59 40° ESE 18:26:55 37° E
BREEZE-M DEB (TANK) 3.0 18:20:08 10° W 18:27:24 46° NNW 18:28:16 38° NNE
Meteor 2-20 Rocket 4.4 18:24:32 10° S 18:30:39 85° W 18:36:50 10° N
USA 229 DEB 3.6 18:26:22 10° SW 18:32:56 90° N 18:37:27 23° NE
USA 229 3.6 18:26:30 10° SW 18:33:03 89° SE 18:37:30 24° NE
CZ-4 R/B 1.8 18:29:49 10° S 18:33:58 64° WSW 18:38:05 10° NNW
ATLAS 5 CENTAUR R/B 2.3 18:31:33 10° NW 18:37:24 90° ENE 18:42:10 20° SE
NOSS 3-1 (A) 3.3 18:32:48 10° SSW 18:38:10 60° ESE 18:39:52 43° ENE
NOSS 3-1 (C) 3.2 18:34:40 10° SW 18:40:11 88° NW 18:43:21 31° NE
Cosmos 1633 Rocket 2.9 18:38:19 10° N 18:42:44 83° E 18:45:36 22° SSE
COSMO-SKYMED 1 3.6 18:41:05 10° N 18:45:15 46° WNW 18:49:24 10° SW
Cosmos 1666 Rocket 3.9 18:47:06 10° NNW 18:51:29 65° W 18:55:46 10° S
Cosmos 1939 Rocket 3.8 18:55:01 39° NNW 18:55:01 39° NNW 18:57:42 10° NNW
NOAA 11 4.1 18:49:25 10° SSE 18:54:51 88° WSW 19:00:19 10° NNW
Cosmos 1680 Rocket 3.6 18:50:26 10° S 18:54:47 56° SSE 18:54:47 56° SSE
H-2A R/B 4.2 19:02:21 14° N 19:02:21 14° N 19:03:06 10° N
Cosmos 1607 4.5 18:53:39 10° NW 18:59:43 57° WSW 19:05:02 14° SSE
Sich 1 4.5 18:56:12 10° NNW 19:00:12 38° W 19:04:13 10° SSW
Ariane Rocket 2.9 19:05:22 74° N 19:05:22 74° N 19:10:02 10° NNW
Cosmos 1656 4.2 19:03:56 10° SW 19:09:23 55° WNW 19:11:50 31° N
Cosmos 2034 Rocket 4.2 19:05:35 10° NNW 19:11:54 69° W 19:18:12 10° S
YAOGAN 1 4.3 19:11:01 10° SSW 19:14:52 31° W 19:18:45 10° NNW
Cosmos 923 Rocket 4.3 19:13:53 10° SSW 19:19:04 63° WNW 19:19:30 60° NW
Cosmos 1980 Rocket 3.8 19:22:54 10° SSW 19:24:56 23° S 19:24:56 23° S
CENTAUR R/B 4.5 19:24:06 10° NNW 19:29:34 21° NNE 19:29:38 21° NNE
Tsikada Rocket 4.1 19:23:40 10° SSW 19:30:00 74° W 19:36:26 10° N
Cosmos 2227 Rocket 3.8 19:25:28 10° NW 19:30:24 31° WSW 19:35:19 10° SSW
Cosmos 2297 Rocket 4.0 19:26:14 10° NW 19:31:01 29° WSW 19:35:46 10° SSW
Cosmos 2369 4.4 19:37:08 10° SW 19:42:29 49° WNW 19:42:29 49° WNW
Lacrosse 4 Rocket 4.2 19:45:44 10° WSW 19:46:26 14° WSW 19:46:26 14° WSW
Cosmos 2263 Rocket 4.4 19:54:05 10° NNW 19:55:12 16° NNW 19:55:12 16° NNW
USA 215 3.9 20:08:58 50° W 20:08:58 50° W 20:14:14 10° NW
Cosmos 1697 Rocket 4.3 20:04:53 10° WSW 20:08:44 31° W 20:08:44 31° W
